Regional Weather Roundup
Issued by NWS Grand Forks, ND

Home | Current Version | Previous Version | Graphics & Text | Print | Product List | Glossary On
Versions: 1 2 3 4 5 6 7 8 9 10 11 12 13 14 15 16 17 18 19 20 21 22 23 24 25 26 27 28 29 30 31 32 33 34 35 36 37 38 39 40 41 42 43 44 45 46 47 48 49 50
786
ASUS43 KFGF 181731
RWRFGF
PRAIRIE TO PINES  WEATHER ROUNDUP
NATIONAL WEATHER SERVICE EASTERN NORTH DAKOTA/GRAND FORKS ND
1200 PM CDT FRI AUG 18 2017

 **SATELLITE DATA USED TO AUGMENT SKY COVER AT AUTOMATED STATIONS**
 *****  WEATHER ACROSS EASTERN NORTH DAKOTA  *****

CITY           SKY/WX    TMP DP  RH WIND       PRES   REMARKS
GRAND FORKS    PTSUNNY   79  59  50 N8        29.84F
GRAND FRKS AFB FAIR      76  59  55 NW7       29.86S
DEVILS LAKE    FAIR      73  58  59 NW13      29.91S
FARGO          FAIR      71  61  70 CALM      29.88S
WAHPETON ARPT  FAIR      64  57  77 W9        29.92R
$$

 ***** WEATHER ACROSS CENTRAL AND WESTERN NORTH DAKOTA  *****

CITY           SKY/WX    TMP DP  RH WIND       PRES   REMARKS
BISMARCK       FAIR      74  56  53 NW7       29.96F
MINOT          FAIR      77  54  44 W12       29.93S
JAMESTOWN      PTSUNNY   69  59  70 N7        29.91R
MINOT AFB      FAIR      76  52  41 NW13      29.91F
GARRISON         N/A     74  54  49 NW8       29.95S
WILLISTON      FAIR      75  54  47 CALM      29.98F
DICKINSON      FAIR      76  53  44 W8        30.00S
HETTINGER      FAIR      76  49  38 N5        30.03S
$$

 *****  OTHER AIRPORT OBSERVATIONS IN OUR AREA  *****

CITY           SKY/WX    TMP DP  RH WIND       PRES   REMARKS
WALHALLA       FAIR      75  77 100 NW12      29.85S
GRAFTON AIRPOR FAIR      73  59  60 W7G13     29.87S
VALLEY CITY AR   N/A     70  63  78 SW5       29.93R
CANDO          FAIR      77  59  53 W9        29.92S
CAVALIER APRT  FAIR      75  57  53 NW13G18   29.84S
GWINNER        CLOUDY    61  59  94 CALM      29.93S
SHEYENNE NWR     N/A     61  61 100 W7        29.95S
ROLLA          FAIR      75  55  50 NW8       29.92S
 ***** THE ABOVE OBSERVATIONS ARE NON NWS ARE NOT QUALITY
       CONTROLLED AND MAY MIS-REPORT RAIN FOR SNOW...
$$

  *****  WEATHER ACROSS NORTHERN MINNESOTA  *****

CITY           SKY/WX    TMP DP  RH WIND       PRES   REMARKS
FLAG ISLAND    FAIR      73  54  49 CALM      29.81S
WARROAD        FAIR      75  61  60 W5        29.83S
ROSEAU         FAIR      75  57  53 CALM      29.83S
HALLOCK        FAIR      73  59  60 CALM      29.84S
THF RVR FALLS  FAIR      77  56  48 NE6       29.86F
BAUDETTE       FAIR      76  56  49 N5        29.82F
WASKISH        FAIR      73  61  64 W6        29.84S
CROOKSTON      FAIR      79  57  47 N7        29.85S
STEPHEN NDAWN    N/A     72  61  68 W3          N/A
GREENBUSH NDAW   N/A     73  57  56 NW3         N/A
$$
  *****  WEATHER ACROSS CENTRAL AND WEST MINNESOTA  *****

CITY           SKY/WX    TMP DP  RH WIND       PRES   REMARKS
FOSSTON        FAIR      79  54  41 NW7       29.87S
BEMIDJI        FAIR      75  56  51 N3        29.87S
PARK RAPIDS    FAIR      76  61  59 W6        29.88S
ELBOW LAKE     RAIN      65  62  90 W9        29.92R
WADENA         FAIR      73  61  64 S5        29.88S
DETROIT LAKES  FAIR      68  61  77 W5        29.91R
MOORHEAD       FAIR      72  61  68 CALM      29.90R
FERGUS FALLS   FAIR      70  64  83 W3        29.90S
MORRIS MN      PTSUNNY   70  63  78 W3        29.92R
STAPLES        FAIR      72  57  60 S3        29.89F
$$
  *****  WEATHER ELSEWHERE ACROSS MINNESOTA  *****

CITY           SKY/WX    TMP DP  RH WIND       PRES   REMARKS
DULUTH         FAIR      69  60  73 NW7       29.87R
INTRNTL FALLS  FAIR      75  58  55 NW6       29.84R
ELY            FAIR      66  57  72 SW3       29.85S
CLOQUET        FAIR      66  59  77 SW3       29.87S
WHEATON        LGT RAIN  66  61  82 NW3       29.92F
BRAINERD       FAIR      69  61  75 W5        29.89S
HIBBING        FAIR      67  59  75 CALM      29.86S
ALEXANDRIA     FAIR      71  60  68 SW12      29.93S
SAINT CLOUD    CLOUDY    66  63  90 W8        29.91R
MINNEAPOLIS    LGT RAIN  67  62  84 W7        29.91R
$$

  *****  WEATHER ACROSS SOUTH DAKOTA  *****

CITY           SKY/WX    TMP DP  RH WIND       PRES   REMARKS
SIOUX FALLS    FAIR      75  62  64 S9        29.93F
BROOKINGS      FAIR      73  60  63 S12       29.92F
WATERTOWN      FAIR      75  61  61 SW14      29.90S
HURON          FAIR      75  64  68 MISG      29.91S
SISSETON         N/A     67  63  87 NE8       29.90R
ABERDEEN       PTSUNNY   71  61  70 NW17      29.90R
MITCHELL       FAIR      75  63  66 S6        29.91S
PIERRE         FAIR      77  55  46 NW13      29.95S
MOBRIDGE       FAIR      75  59  57 N14G22    29.94S
RAPID CITY     FAIR      78  47  33 N10       30.07R
$$

  *****  SOME WEATHER IN NEARBY STATES *****

CITY           SKY/WX    TMP DP  RH WIND       PRES   REMARKS
GLASGOW MT     FAIR      75  45  34 S3        29.97F
GREAT FALLS MT FAIR      78  34  20 SW14      30.03F
CHEYENNE WY    FAIR      75  42  30 W5        30.26F
SCOTTSBLUFF NE FAIR      76  49  38 W7        30.14S
OMAHA NE       FAIR      83  60  45 N10       29.93F
DES MOINES IA  FAIR      81  64  56 SW8       29.91F
DAVENPORT IA   FAIR      76  60  57 VRB5      29.95S
CHICAGO IL     PTSUNNY   75  59  57 NW16      29.88S
EAU CLAIRE WI  PTSUNNY   70  61  73 W7        29.88R
LA CROSSE WI   PTSUNNY   74  60  61 NW8       29.89F
$$

  *****  SOME NATIONAL WEATHER *****

CITY           SKY/WX    TMP DP  RH WIND       PRES   REMARKS
LA GUARDIA NY  CLOUDY    82  76  81 SW15      29.84F
RALEIGH NC     FAIR      94  76  55 SW10      29.91F HX 106
ATLANTA GA     PTSUNNY   86  71  60 W14       30.02F HX  91
NEW ORLEANS LA FAIR      91  77  63 W3        30.05F HX 104
OKLAHOMA CITY  PTSUNNY   86  65  49 S14       29.99F
ALBUQUERQUE NM FAIR      81  36  19 CALM      30.26S
SALT LAKE CITY FAIR      84  40  21 N5        30.16S
LOS ANGELES CA FAIR      72  63  73 W8        30.02R
BOISE ID       FAIR      76  44  32 W5        30.12R
SEATTLE WA     PTSUNNY   62  54  74 W6        30.19R
$$

*** WEATHER ACROSS MANITOBA...SASKATCHEWAN AND ONTARIO ***
                ***ONTARIO***

CITY           SKY/WX    TMP DP  RH WIND       PRES   REMARKS
GERALDTON      CLOUDY    59  57  94 N10       29.75R
THUNDER BAY    PTSUNNY   70  55  60 NW10G20   29.76S
SIOUX LOOKOUT  MOSUNNY   72  59  64 S5        29.79F
TORONTO        PTSUNNY   79  64  61 W21       29.68F
BIG TROUT LK   SUNNY     70  59  68 S6        29.71F
PICKLE LAKE    PTSUNNY   73  54  49 VRB6      29.76F
DRYDEN         SUNNY     73  57  56 VRB3      29.80F
KENORA         PTSUNNY   72  52  49 NW10      29.82S
$$
                *** MANITOBA***

CITY           SKY/WX    TMP DP  RH WIND       PRES   REMARKS
BRANDON        MOSUNNY   77  55  47 W13       29.87F
DAUPHIN        SUNNY     79  54  41 W12G17    29.83F
ISLAND LAKE    MOSUNNY   73  59  60 SW2       29.72F
PILOT MOUND      N/A     73  54  49 W8          N/A
THE PAS        PTSUNNY   73  55  53 W9        29.76F
THOMPSON       MOSUNNY   66  54  63 W7        29.67F
WINNIPEG       MOSUNNY   75  61  60 W8        29.82S
LYNN LAKE      MOSUNNY   70  54  56 MISG      29.69S
CHURCHILL      CLOUDY    61  55  82 VRB2      29.59S
GILLAM         PTSUNNY   73  52  46 SW10G18   29.61F
$$
                ***SASKATCHEWAN***

CITY           SKY/WX    TMP DP  RH WIND       PRES   REMARKS
ESTEVAN        MOSUNNY   75  52  43 NW6       29.95F
KINDERSLEY     SUNNY     75  46  35 SE13G20   29.89F
LLOYDMINSTER   MOSUNNY   70  55  60 SW10      29.86F
PRINCE ALBERT  MOSUNNY   75  55  50 W8        29.87F
REGINA         MOSUNNY   75  46  35 W9        29.93F
YORKTON        SUNNY     73  55  53 W10       29.89F
N. BATTLEFORD  SUNNY     73  54  49 S7        29.90F
LA RONGE       MOSUNNY   73  52  46 W10G17    29.77S
SASKATOON      SUNNY     73  52  46 SW6       29.91F
SWIFT CURRENT  SUNNY     75  46  35 S13       29.93F
$$
NOTE: THESE ARE AUTOMATED STATIONS WITH LIMITED QUALITY CONTROL
      "FAIR" INDICATES FEW OR NO CLOUDS BELOW 12,000 FEET WITH NO
      SIGNIFICANT WEATHER AND/OR OBSTRUCTIONS TO VISIBILITY.
      SKY/WX - SKY CONDITION AND SIGNIFICANT WEATHER.
      TMP - AIR TEMPERATURE.    DP   - DEWPOINT TEMPERATURE.
      RH  - RELATIVE HUMIDITY.  PRES - PRESSURE.
      HX  - HEAT INDEX.         WCI  - WIND CHILL INDEX.
$




USA.gov is the U.S. government's official web portal to all federal, state and local government web resources and services.